CAPE
0 3 3 4 0 0 0 0 0 0 0 0 0 0 0 0 0 0 0 0 0 0 0 0 0 0 0 0 0 0 0 0 0 0 0 0 0 0 0 0 0 0 0 0
4 5 9 7 0 0 0 0 0 0 0 0 0 0 0 0 0 0 0 0 0 0 0 0 0 0 0 0 0 0 0 0 0 0 0 0 0 0 0 0 0 0 0 0
2 5 0 0 0 0 0 0 0 0 0 0 0 0 0 0 0 1 0 0 0 0 0 0 0 0 0 0 0 0 0 0 0 0 0 0 0 0 0 0 0 0 0 0
7 7 0 0 0 0 0 0 0 1 0 0 0 0 0 1 0 0 1 0 0 0 0 0 0 0 0 0 0 0 0 0 0 0 0 0 0 0 0 0 0 0 0 0
7 2 2 0 0 0 0 1 0 1 1 5 1 0 0 0 0 0 0 0 0 0 0 0 0 0 0 0 0 0 0 0 0 0 0 0 0 0 0 0 0 0 0 0
5 0 5 7 8 0 0 0 1 2 1 3 0 0 0 0 0 0 0 2 0 0 0 0 0 0 0 0 0 0 0 0 0 0 0 0 0 0 0 0 0 0 0 0
8 12 1 9 12 2 1 0 10 10 1 0 3 4 2 0 0 2 0 0 0 0 0 0 0 0 0 0 0 0 0 0 0 0 0 0 0 0 0 0 0 0 0 0
3 5 7 13 10 19 0 0 17 20 7 1 0 3 5 1 0 0 0 0 0 0 0 0 0 0 0 0 0 0 0 0 0 0 0 0 0 0 0 0 0 0 0 0
1 2 3 14 15 16 0 0 0 21 13 0 6 3 0 0 0 0 0 0 0 0 0 0 0 0 0 0 0 0 0 0 0 0 0 0 0 0 0 0 0 0 0 0
0 7 18 16 19 28 2 0 0 19 12 3 3 4 0 1 0 1 0 0 0 0 0 0 0 0 0 0 0 0 0 0 0 0 0 0 0 0 3 0 0 0 0 0
1 7 14 21 20 27 12 1 0 8 4 0 0 1 2 0 1 1 1 0 1 0 1 1 0 0 0 0 0 0 0 0 0 0 0 0 0 3 16 0 0 1 0 0
0 4 9 13 8 16 24 7 0 0 8 1 0 0 0 0 0 0 1 1 0 0 0 0 0 0 0 0 0 0 0 0 0 0 0 0 0 1 25 0 10 1 0 0
0 3 9 14 6 8 37 2 3 0 1 0 0 0 0 0 0 0 2 0 0 0 1 3 0 0 1 0 0 21 4 5 0 8 0 0 9 28 10 3 0 1 18 43
1 2 10 11 16 20 36 13 2 0 3 1 0 0 0 0 0 0 0 0 0 0 4 1 0 0 2 0 3 1 1 1 0 0 0 23 49 19 22 19 3 41 32 39
2 5 8 13 10 9 16 8 0 4 2 0 0 0 0 0 0 0 0 0 0 0 2 1 2 1 0 2 1 0 1 0 0 0 0 7 5 26 0 50 23 3 11 6
1 4 9 7 6 15 0 0 0 1 4 1 1 0 0 0 0 0 0 0 1 1 1 1 2 1 2 0 3 0 1 0 0 7 55 30 79 11 19 50 19 0 19 4
0 4 3 3 4 2 0 0 0 1 0 2 0 1 0 0 0 0 0 0 0 0 2 0 0 0 5 1 2 0 0 1 0 13 5 174 115 85 56 8 0 0 2 0
0 2 0 0 3 6 3 1 2 2 4 2 0 0 0 0 0 1 0 0 0 0 0 2 6 6 3 0 0 0 0 0 1 2 5 123 70 64 22 0 0 0 0 0
0 0 0 0 0 0 0 1 6 3 0 0 0 0 0 0 0 1 2 0 1 6 2 3 1 1 0 0 0 1 0 1 1 8 0 0 8 29 0 0 0 0 0 0
0 0 0 0 0 0 4 1 0 1 3 5 0 2 0 1 3 3 1 4 1 0 0 3 0 0 0 0 0 1 0 4 0 3 0 43 10 13 3 0 0 0 0 0
0 0 0 0 0 1 1 0 1 2 0 1 0 1 0 0 1 2 5 1 1 0 0 0 0 0 0 0 1 3 1 24 9 17 0 0 0 0 1 0 3 0 8 5
0 1 1 0 0 0 0 0 0 0 0 2 2 1 0 0 1 4 5 1 0 0 6 0 0 0 7 10 21 6 2 7 4 3 0 0 0 0 6 16 2 1 14 3
0 0 0 0 1 0 1 0 2 2 4 0 2 1 4 0 1 2 0 3 1 2 0 0 7 20 1 3 3 1 2 11 25 6 3 0 0 0 0 1 1 3 0 0
0 0 0 0 4 2 5 5 2 2 1 0 0 0 0 0 0 0 0 1 0 0 0 2 5 4 4 1 4 0 0 3 0 1 0 0 0 0 0 0 0 0 0 0
0 0 0 1 7 3 1 0 0 0 0 0 0 0 0 0 0 1 1 0 0 0 2 3 6 1 0 0 0 0 0 0 0 0 0 0 0 0 0 0 0 0 0 0
5 0 0 0 0 0 0 0 0 0 0 0 0 0 0 0 0 0 2 0 0 7 14 6 0 0 0 0 0 0 0 0 0 0 0 0 0 0 0 0 0 0 0 0
6 0 0 0 0 0 0 0 0 0 0 0 0 1 1 0 0 2 4 4 3 5 0 0 0 0 0 0 0 0 0 0 0 0 0 0 0 0 0 0 0 0 0 0
CIN
0 -1 0 -1 0 0 0 0 0 0 0 0 0 0 0 0 0 0 0 0 0 0 0 0 0 0 0 0 0 0 0 0 0 0 0 0 0 0 0 0 0 0 0 0
-1 0 0 -1 0 0 0 0 0 0 0 0 0 0 0 0 0 0 0 0 0 0 0 0 0 0 0 0 0 0 0 0 0 0 0 0 0 0 0 0 0 0 0 0
0 0 0 0 0 0 0 0 0 0 0 0 0 0 0 0 0 0 0 0 0 0 0 0 0 0 0 0 0 0 0 0 0 0 0 0 0 0 0 0 0 0 0 0
0 0 0 0 0 0 0 0 0 -10 0 0 -1 0 0 -1 0 0 0 0 0 0 0 0 0 0 0 0 0 0 0 0 0 0 0 0 0 0 0 0 0 0 0 0
0 0 -1 0 0 0 0 -1 0 0 0 -11 -3 0 0 -3 0 0 0 0 0 0 0 0 0 0 0 0 0 0 0 0 0 0 0 0 0 0 0 0 0 0 0 0
0 0 -3 -3 -2 0 0 0 -5 -1 0 -1 0 0 0 0 0 0 -1 0 0 0 0 0 0 0 0 0 0 0 0 0 0 0 0 0 0 0 0 0 0 0 0 0
0 0 0 -4 -4 -4 -5 -5 -4 -4 -2 0 -1 -3 0 0 0 -1 0 0 0 0 0 0 0 0 0 0 0 0 0 0 0 0 0 0 0 0 0 0 0 0 0 0
0 0 0 -1 -6 -4 0 0 0 0 0 -1 0 -1 0 -1 0 0 0 0 0 0 0 0 0 0 0 0 0 0 0 0 0 0 0 0 0 0 0 0 0 0 0 0
0 0 0 0 -2 -4 0 0 0 0 0 -3 -2 0 0 0 0 -1 0 0 0 0 0 0 0 0 0 0 0 0 0 0 0 0 0 0 0 0 0 0 0 0 0 0
0 0 0 0 0 -2 -2 -1 0 -1 0 -1 -4 0 -1 -2 -3 0 0 0 0 0 -1 0 0 0 0 0 0 0 0 0 0 0 0 0 0 0 -47 0 0 0 0 0
0 0 0 0 0 0 -4 -1 0 -1 0 0 0 0 0 -1 0 0 -1 0 -3 -1 -1 -1 -1 0 0 0 0 0 0 0 0 0 0 0 0 -11 -13 0 0 0 0 0
0 0 -2 0 0 0 -3 -2 0 -2 -1 0 0 0 0 0 0 -1 -1 -2 0 0 -2 0 0 0 0 0 0 0 0 0 0 0 0 0 0 -24 -199 -8 -305 0 0 0
0 0 -2 0 -1 -1 0 -8 -6 -4 0 0 0 0 0 0 0 0 0 -1 -2 0 -4 -1 0 0 -2 0 0 -8 -33 -48 0 -7 0 0 -122 -127 -270 -241 -27 -97 -531 -493
0 0 0 0 0 0 0 -1 -8 -1 -2 0 0 0 0 0 0 0 0 0 0 -1 -1 0 0 0 0 0 -3 0 0 -39 0 0 0 -19 -19 -125 -284 -369 -201 -459 -514 -580
0 0 0 0 0 -1 0 -1 -2 -5 -1 0 0 0 0 0 0 0 0 0 0 0 0 -1 0 0 0 0 0 0 -1 0 0 0 0 -17 -10 -112 0 -391 -336 -520 -553 -625
0 0 0 0 0 0 0 0 0 0 -3 0 0 0 0 0 0 0 0 0 0 0 0 0 0 -1 0 0 0 0 -4 0 0 0 -1 -16 -27 -83 -167 -330 -392 0 -507 -567
0 0 0 0 0 -1 0 0 0 0 0 0 0 0 0 0 0 0 0 0 0 0 0 0 -1 0 0 -1 0 0 0 0 0 -3 -2 0 -2 -26 -88 -229 -25 0 -439 0
0 0 0 0 0 0 0 -1 0 0 -1 0 0 0 0 0 0 -3 0 0 0 0 0 -2 -1 -1 0 0 0 0 0 0 0 -9 -17 -13 -19 -32 -86 0 0 0 0 0
0 0 0 0 0 0 0 0 0 0 0 0 0 0 0 0 0 -7 -14 0 0 -6 0 0 0 0 0 0 0 0 0 0 -1 -8 0 0 -18 -76 -8 0 0 0 0 -43
0 0 0 0 0 0 0 0 0 -1 0 0 0 0 0 0 0 0 0 0 0 0 0 0 0 0 0 0 0 0 0 -10 0 -33 0 -23 -9 -22 -33 0 0 0 0 0
0 0 0 0 0 0 0 0 0 0 0 0 0 0 0 0 0 0 0 0 0 0 0 0 0 0 0 0 0 0 -4 -8 -16 -16 0 0 0 -27 -42 -21 -21 0 -21 -34
0 0 0 0 0 0 0 0 0 0 0 0 0 0 0 0 -2 0 0 0 0 0 0 0 0 0 -3 0 -3 -10 0 -26 0 -1 0 0 0 0 -17 -15 -13 -5 -30 -40
0 0 0 0 -4 0 0 0 0 0 0 0 0 -1 0 0 -1 0 0 0 0 0 0 0 0 0 0 0 -4 0 -2 -9 -9 -25 -4 -2 0 0 0 -31 -33 -30 0 0
0 0 0 -3 0 0 0 0 0 0 0 0 0 0 0 0 0 0 0 0 0 0 0 0 0 -2 0 0 0 0 0 0 0 -50 0 0 0 0 0 0 0 0 0 0
0 0 0 -2 -3 -2 -1 0 0 0 0 0 0 0 0 0 0 0 0 0 0 0 0 0 -6 0 0 0 0 0 0 0 0 0 0 0 0 0 0 0 0 0 0 0
-4 0 0 0 0 0 0 0 0 0 0 0 0 0 0 0 0 0 0 0 0 -12 -6 -16 0 0 0 0 0 0 0 0 0 0 0 0 0 0 0 0 0 0 0 0
-5 0 0 0 0 0 0 0 0 0 0 0 0 0 0 0 0 0 0 0 0 -4 0 0 0 0 0 0 0 0 0 0 0 0 0 0 0 0 0 0 0 0 0 0
Wind_Speed
44 44 42 42 41 42 34 33 38 32 34 29 27 33 35 35 37 32 33 34 34 36 34 34 31 31 26 23 26 30 29 32 43 32 24 29 29 31 30 31 27 35 43 40
40 41 38 37 38 37 33 36 29 27 27 31 32 31 31 31 33 33 33 34 32 32 34 37 31 30 25 24 24 27 29 33 39 39 41 35 33 38 33 32 35 28 25 42
38 39 37 34 33 32 29 29 30 27 24 25 29 32 31 32 29 29 30 31 29 32 35 32 34 32 28 28 25 24 26 32 35 43 36 34 43 39 35 37 47 49 55 49
34 35 34 32 29 27 24 25 25 25 30 30 30 30 28 30 30 27 25 28 29 33 40 39 39 35 35 30 27 27 29 38 37 36 41 40 42 45 45 44 39 50 50 56
31 30 31 29 27 23 21 22 24 23 26 25 30 27 25 27 30 29 32 29 28 32 36 38 41 37 36 38 34 33 31 40 38 45 41 45 48 46 46 46 46 48 60 56
29 28 28 26 23 19 18 17 17 19 23 24 28 26 26 29 30 27 27 30 35 33 31 32 37 39 41 42 40 38 37 38 41 51 43 46 55 48 51 50 42 43 59 50
30 27 23 23 22 14 13 14 15 19 24 25 25 29 31 32 31 31 35 35 36 29 32 35 37 38 41 42 44 43 41 41 40 49 44 59 44 40 36 46 55 48 49 44
27 26 23 21 19 17 12 13 12 12 17 21 13 13 30 29 30 30 28 30 26 30 30 32 35 34 36 42 44 43 42 42 46 50 52 55 50 36 37 42 47 44 43 45
23 23 22 20 18 17 14 11 9 7 7 6 6 13 26 30 30 27 23 24 26 23 26 29 36 41 37 40 37 39 40 44 47 45 54 59 39 38 38 34 54 33 37 37
24 21 19 18 15 13 13 11 9 7 3 1 3 1 7 5 16 24 25 21 24 20 26 32 36 40 34 42 44 41 38 44 56 58 54 50 40 37 33 47 51 43 40 41
22 19 16 15 13 10 11 8 7 5 6 8 7 10 12 16 12 17 21 24 18 19 23 26 29 32 32 39 42 43 42 44 51 53 57 66 37 37 43 41 42 41 39 37
23 21 19 14 10 8 7 8 7 4 2 8 15 16 19 20 20 16 11 17 22 20 18 19 22 28 29 32 40 33 48 46 43 45 51 37 38 38 33 34 36 36 37 34
24 18 17 13 9 6 5 5 5 5 2 5 6 6 10 15 21 22 16 15 17 21 20 22 20 24 24 32 33 35 37 35 44 47 47 48 40 34 34 31 31 27 24 20
22 19 16 12 8 5 2 2 4 6 5 4 3 6 6 11 17 21 25 23 21 20 18 16 21 22 20 24 26 38 37 35 38 44 49 39 38 36 30 27 23 16 12 8
23 19 17 11 7 4 3 1 3 7 8 6 1 7 10 11 15 19 21 23 23 19 16 17 18 18 19 27 28 32 26 32 39 46 37 42 38 33 28 24 22 13 8 6
22 20 16 10 3 6 12 13 13 11 11 8 8 7 10 10 13 15 18 18 17 19 18 16 16 18 15 13 16 17 19 34 40 35 30 35 30 26 23 20 18 13 6 5
21 19 15 10 9 13 15 15 11 13 14 9 7 10 11 8 10 13 14 18 18 18 16 13 15 17 17 18 19 19 30 33 32 39 37 30 24 24 18 16 13 13 6 6
20 15 8 15 16 15 10 6 10 16 13 11 11 9 7 10 11 13 16 15 17 15 12 12 15 12 15 18 15 18 26 30 32 38 41 36 29 25 16 12 9 6 8 11
16 13 20 20 20 17 11 15 17 16 14 14 13 12 13 8 11 12 13 13 11 11 11 8 8 9 13 13 18 18 26 29 30 32 41 35 36 23 17 12 8 6 8 9
13 19 19 20 17 4 19 18 18 16 14 13 11 12 12 11 12 13 13 12 13 12 11 9 10 9 11 13 14 15 17 19 25 39 39 38 17 14 13 11 2 5 4 7
21 20 21 12 5 14 19 15 17 17 15 13 14 13 12 14 14 14 15 14 14 14 13 14 12 9 4 6 5 16 30 29 9 24 27 14 9 9 11 7 3 3 4 5
15 14 18 11 11 16 12 12 18 16 15 14 13 13 16 15 16 16 17 17 15 16 11 13 9 7 4 6 7 14 16 20 19 5 5 7 2 5 2 2 6 7 7 10
20 23 24 9 7 12 9 10 15 9 9 10 6 12 16 17 16 18 21 19 18 16 19 18 14 14 14 12 9 13 13 17 13 4 8 6 8 10 8 4 9 18 12 10
18 24 21 7 6 8 9 5 4 6 3 2 11 16 16 15 14 14 17 17 18 21 23 23 16 17 18 22 16 17 18 18 16 18 14 13 14 13 16 17 15 17 15 16
24 27 7 8 4 9 10 4 3 3 4 11 20 21 18 13 15 7 9 15 14 13 19 15 12 15 17 19 20 20 19 19 17 15 14 15 19 21 19 18 15 16 17 19
30 33 19 9 9 13 14 11 7 9 4 17 16 21 23 11 14 9 6 10 9 8 9 11 13 14 18 19 19 17 14 16 19 21 20 18 17 19 20 20 18 19 20 19
27 3 5 15 14 8 9 9 9 5 9 11 26 25 13 22 27 15 4 11 12 9 11 10 16 16 17 21 25 25 25 24 21 22 24 22 20 19 21 21 20 21 21 21
Wind_Direction
352 351 350 350 349 345 350 340 321 338 336 312 301 286 283 283 277 282 274 270 266 262 262 260 257 254 258 276 269 256 260 256 249 250 258 254 244 246 245 254 257 262 252 227
0 358 357 356 353 351 349 334 331 349 345 309 301 296 285 282 279 276 271 267 268 265 260 255 258 257 262 275 270 261 263 255 250 251 254 258 257 251 251 252 262 238 232 235
4 3 4 3 1 358 358 343 328 337 344 335 318 301 286 280 282 274 274 270 267 263 258 260 256 257 261 267 269 271 265 255 253 250 254 258 254 255 254 251 254 231 223 233
10 10 11 11 12 11 9 359 342 345 324 322 319 313 296 285 278 277 278 268 272 266 257 256 256 259 261 264 267 267 263 254 257 259 258 260 258 256 255 255 254 252 248 232
14 15 16 18 18 23 21 11 357 351 341 337 319 317 305 296 287 278 267 267 277 273 260 259 255 261 259 258 261 262 263 256 258 256 263 259 258 257 258 258 259 262 245 250
16 17 18 21 25 32 30 25 14 0 344 337 324 318 312 302 299 285 271 275 273 269 269 270 266 264 261 259 258 258 260 258 258 254 258 262 255 255 256 258 260 260 250 258
15 17 18 20 25 38 41 33 21 6 344 335 332 317 299 296 294 286 278 277 268 270 285 279 271 265 259 258 256 254 255 256 257 255 257 251 256 262 264 262 257 259 261 264
16 16 17 20 21 27 32 30 36 27 359 348 356 354 300 302 288 292 286 278 280 287 279 271 265 262 260 257 254 252 250 251 252 252 250 255 257 262 260 264 262 264 262 261
12 13 14 15 19 26 30 29 41 42 22 32 37 1 265 287 297 297 303 292 293 297 277 266 259 256 259 256 257 255 249 248 248 249 249 249 256 260 269 268 259 278 269 260
5 4 5 8 12 22 32 31 40 48 13 293 193 88 204 47 348 303 294 302 299 299 274 264 262 261 264 257 254 252 249 246 244 246 250 252 258 269 273 255 258 272 273 267
358 354 351 355 360 8 26 29 54 44 13 265 223 214 214 218 200 220 249 286 302 297 278 271 268 266 265 262 258 252 249 247 245 246 248 248 260 267 258 268 274 272 272 269
355 354 353 346 342 357 19 23 59 82 184 251 255 242 228 218 209 201 170 206 252 278 294 289 285 274 275 271 261 259 249 249 250 247 249 260 256 261 271 273 277 274 271 272
352 342 346 344 335 336 5 16 46 71 58 285 158 176 198 194 199 194 187 180 173 200 216 276 294 282 285 273 265 263 260 264 256 255 252 253 257 261 267 274 275 279 279 275
348 338 333 328 334 340 350 47 80 84 94 101 122 154 188 186 186 183 188 193 198 204 200 191 228 290 305 291 282 269 266 270 259 257 252 258 252 255 262 268 269 280 287 281
347 340 338 335 334 359 32 75 156 164 134 91 334 262 128 125 149 170 178 184 192 195 191 196 209 208 223 255 288 278 275 266 260 252 256 251 254 252 255 257 256 267 269 273
345 341 346 349 5 69 58 58 90 124 132 107 84 111 125 135 143 158 171 171 172 185 201 199 197 208 190 199 209 200 197 258 250 257 264 258 253 247 243 244 247 252 260 287
341 344 3 20 62 74 58 59 77 96 109 101 102 113 134 144 140 141 152 162 183 183 194 193 207 213 207 223 231 235 241 231 229 234 243 244 240 234 236 232 240 247 254 281
339 349 6 50 63 62 70 95 105 110 107 107 111 114 135 127 153 149 155 156 177 170 175 184 207 202 216 236 227 231 235 223 228 225 222 222 231 225 220 216 221 241 269 283
327 27 53 56 59 65 85 86 112 118 112 91 103 90 91 133 130 143 143 138 147 172 180 169 154 160 202 215 246 242 239 227 235 217 211 213 215 203 194 190 205 222 287 282
31 50 51 52 55 118 91 83 88 99 102 93 87 104 99 120 122 128 134 138 139 133 126 147 148 138 207 238 241 241 215 200 223 194 203 205 182 192 185 185 211 235 308 285
49 52 50 67 135 99 80 87 84 82 82 89 82 90 105 117 119 121 127 128 133 122 117 109 115 123 267 249 219 155 94 119 134 173 181 172 138 150 145 153 156 26 345 343
62 61 57 99 113 90 92 84 75 90 94 98 96 101 118 120 125 124 113 114 119 112 101 104 92 93 19 17 17 144 58 62 61 114 139 172 186 202 111 151 46 26 19 35
67 57 58 104 105 80 81 66 91 108 97 102 99 103 111 121 119 116 104 100 101 102 90 92 70 22 23 41 64 56 46 40 43 84 85 101 79 59 57 69 43 41 24 5
83 66 6 8 338 66 78 313 158 136 130 89 117 109 117 121 124 118 108 97 105 92 85 81 52 52 54 35 40 43 38 44 65 59 71 70 59 50 42 46 50 43 24 20
79 62 57 36 37 62 59 100 164 121 133 119 110 107 106 111 116 115 119 110 102 83 87 83 66 54 47 51 59 59 58 54 53 46 50 48 47 49 43 40 41 42 36 28
61 52 80 60 45 6 4 4 18 347 319 122 116 101 93 29 107 100 39 112 29 76 53 75 80 32 31 34 35 38 48 43 37 35 32 28 31 32 35 37 34 32 28 25
37 85 33 82 80 15 3 7 357 344 1 354 43 24 341 82 71 104 55 17 11 2 6 11 11 14 17 19 23 23 24 23 21 23 27 28 24 24 25 25 20 26 26 28